Weather History for Bradford, PA

Change the Weather History Date:

Saturday, July 28, 2012

  Actual Average Record
Temperature  
Mean Temperature 67 °F 65 °F  
Max Temperature 73 °F 77 °F 86 °F (1964)
Min Temperature 60 °F 53 °F 37 °F (1971)
Degree Days  
Heating Degree Days 0 0  
Month to date heating degree days 1  
Since 1 June heating degree days 146  
Since 1 July heating degree days 1  
Cooling Degree Days 2 2  
Month to date cooling degree days 64  
Year to date cooling degree days 114  
Since 1 June cooling degree days 104  
Growing Degree Days 17 (Base 50)    
Moisture  
Dew Point 61 °F    
Average Humidity 90    
Maximum Humidity 94    
Minimum Humidity 68    
Precipitation  
Precipitation 0.07 in 0.14 in 2.50 in (1981)
Month to date precipitation 3.79  
Year to date precipitation 25.44  
Sea Level Pressure  
Sea Level Pressure 29.98 in    
Wind  
Wind Speed 1 mph (ENE)    
Max Wind Speed 9 mph    
Max Gust Speed -    
Visibility 5 miles    
Events Fog , Rain    
T = Trace of Precipitation, MM = Missing Value Source: NWS Daily Summary

Daily Weather History Graph

Daily Weather History Graph

Search for Another Location

Airport:

Trip Planner

Search our weather history database for the weather conditions in past years. The results will help you decide how hot, cold, wet, or windy it might be!

Date:

Astronomy

Jul. 28, 2012 Rise Set
Actual Time 6:05 AM EDT 8:36 PM EDT
Civil Twilight 5:33 AM EDT 9:08 PM EDT
Nautical Twilight 4:53 AM EDT 9:47 PM EDT
Astronomical Twilight 4:08 AM EDT 10:31 PM EDT
Moon 4:39 PM EDT (7/28) 1:22 AM EDT (7/28)
Length of Visible Light 15h 34m
Length of Day
14h 31m
Waxing Gibbous, 75% of the Moon is Illuminated
Jul 28
Waxing Gibbous
Aug 1
Full
Aug 9
Last Quarter
Aug 17
New
Aug 24
First Quarter

Hourly Weather History & Observations

Time (EDT) Temp. Dew Point Humidity Pressure Visibility Wind Dir Wind Speed Gust Speed Precip Events Conditions
12:35 AM 62.1 °F 59.0 °F 90% 29.96 in 1.5 mi Calm Calm - N/A   Partly Cloudy
12:51 AM 62.6 °F 59.0 °F 88% 29.96 in 10.0 mi Calm Calm - N/A   Partly Cloudy
12:53 AM 62.1 °F 59.0 °F 90% 29.96 in 10.0 mi Calm Calm - N/A   Partly Cloudy
1:41 AM 61.0 °F 57.9 °F 90% 29.96 in 6.0 mi SE 3.5 mph - N/A   Mostly Cloudy
1:53 AM 61.0 °F 59.0 °F 93% 29.96 in 2.0 mi Calm Calm - N/A   Mostly Cloudy
2:00 AM 61.0 °F 59.0 °F 93% 29.96 in 1.2 mi SE 3.5 mph - N/A   Mostly Cloudy
2:38 AM 61.0 °F 59.0 °F 93% 29.96 in 3.0 mi Calm Calm - N/A   Scattered Clouds
2:53 AM 62.1 °F 60.1 °F 93% 29.96 in 9.0 mi Calm Calm - N/A   Scattered Clouds
3:27 AM 62.1 °F 59.0 °F 90% 29.97 in 10.0 mi Calm Calm - N/A   Overcast
3:49 AM 62.6 °F 59.0 °F 88% 29.97 in 2.0 mi Calm Calm - N/A   Overcast
3:53 AM 63.0 °F 60.1 °F 90% 29.94 in 1.2 mi Calm Calm - N/A   Overcast
4:06 AM 62.1 °F 60.1 °F 93% 29.97 in 0.5 mi Calm Calm - N/A Fog Fog
4:14 AM 63.0 °F 60.1 °F 90% 29.97 in 0.2 mi ESE 3.5 mph - N/A Fog Fog
4:53 AM 63.0 °F 61.0 °F 93% 29.92 in 0.2 mi Calm Calm - N/A Fog Fog
5:44 AM 63.0 °F 61.0 °F 93% 29.97 in 0.5 mi Calm Calm - N/A Fog Fog
5:53 AM 63.0 °F 61.0 °F 93% 29.93 in 0.8 mi Calm Calm - N/A   Overcast
6:10 AM 62.1 °F 60.1 °F 93% 29.97 in 0.5 mi Calm Calm - N/A Fog Fog
6:35 AM 62.1 °F 60.1 °F 93% 29.97 in 0.2 mi SE 3.5 mph - N/A Fog Fog
6:41 AM 62.1 °F 60.1 °F 93% 29.98 in 0.5 mi Calm Calm - N/A Fog Fog
6:51 AM 62.6 °F 60.8 °F 94% 29.98 in 0.2 mi Calm Calm - N/A Fog Fog
6:53 AM 62.1 °F 60.1 °F 93% 29.94 in 0.2 mi Calm Calm - N/A Fog Fog
7:13 AM 63.0 °F 61.0 °F 93% 29.97 in 0.8 mi Calm Calm - N/A   Overcast
7:18 AM 63.0 °F 61.0 °F 93% 29.97 in 2.0 mi Calm Calm - N/A   Overcast
7:20 AM 63.0 °F 61.0 °F 93% 29.97 in 3.0 mi Calm Calm - N/A   Overcast
7:53 AM 64.9 °F 62.1 °F 90% 29.94 in 10.0 mi Calm Calm - N/A   Overcast
8:23 AM 64.9 °F 62.1 °F 90% 29.99 in 8.0 mi North 3.5 mph - N/A   Overcast
8:41 AM 64.9 °F 62.1 °F 90% 30.01 in 7.0 mi NNW 5.8 mph - 0.01 in Rain Light Rain
8:53 AM 64.0 °F 62.1 °F 93% 29.99 in 4.0 mi NW 4.6 mph - 0.01 in Rain Light Rain
9:05 AM 64.0 °F 62.1 °F 93% 30.02 in 2.5 mi Calm Calm - 0.01 in Rain Light Rain
9:25 AM 64.9 °F 63.0 °F 93% 30.02 in 5.0 mi Calm Calm - 0.02 in Rain Light Rain
9:35 AM 64.9 °F 62.1 °F 90% 30.02 in 4.0 mi Calm Calm - 0.03 in Rain Rain
9:43 AM 64.9 °F 63.0 °F 93% 30.02 in 4.0 mi Calm Calm - 0.04 in Rain Light Rain
9:53 AM 64.9 °F 63.0 °F 93% 29.99 in 6.0 mi NNE 4.6 mph - 0.04 in Rain Light Rain
10:03 AM 64.0 °F 62.1 °F 93% 30.02 in 3.0 mi NE 9.2 mph - 0.02 in Rain Rain
10:16 AM 64.9 °F 61.0 °F 87% 30.02 in 10.0 mi ENE 8.1 mph - 0.02 in   Overcast
10:27 AM 64.9 °F 61.0 °F 87% 30.03 in 10.0 mi East 5.8 mph - 0.02 in   Overcast
10:53 AM 64.0 °F 60.1 °F 87% 30.00 in 10.0 mi East 6.9 mph - 0.02 in Rain Light Rain
11:23 AM 64.9 °F 61.0 °F 87% 30.03 in 10.0 mi ESE 5.8 mph - 0.00 in   Overcast
11:53 AM 66.9 °F 61.0 °F 81% 29.99 in 10.0 mi ESE 9.2 mph - 0.00 in   Overcast
12:53 PM 70.0 °F 62.1 °F 76% 29.98 in 10.0 mi East 9.2 mph - N/A   Overcast
1:53 PM 73.0 °F 62.1 °F 68% 29.97 in 10.0 mi NNE 5.8 mph - 0.00 in   Mostly Cloudy
2:53 PM 71.1 °F 62.1 °F 73% 29.98 in 10.0 mi North 5.8 mph - 0.00 in Rain Light Rain
10:53 PM 63.0 °F 59.0 °F 87% 30.04 in 10.0 mi Calm Calm - N/A   Overcast
11:53 PM 60.1 °F 57.9 °F 93% 30.06 in 9.0 mi Calm Calm - N/A   Clear